Peru, IN

5:38 PM EDT on May 25, 2017 (GMT -0400)
Grissom Air Reserve Base

Weather History for KGUS - November, 2013

Change the Weather History Date:

Saturday, November 2, 2013

  Actual Average Record
Temperature  
Mean Temperature 46 °F -  
Max Temperature 50 °F 54 °F 76 °F (2016)
Min Temperature 42 °F 37 °F 21 °F (1996)
Degree Days  
Heating Degree Days 19    
Moisture  
Dew Point 44 °F    
Average Humidity 95    
Maximum Humidity 100    
Minimum Humidity 76    
Precipitation  
Precipitation 0.01 in - - ()
Sea Level Pressure  
Sea Level Pressure 29.86 in    
Wind  
Wind Speed 10 mph (WNW)    
Max Wind Speed 17 mph    
Max Gust Speed 21 mph    
Visibility 10 miles    
Events Rain    
Averages and records for this station are not official NWS values.
T = Trace of Precipitation, MM = Missing Value Source: NWS Daily Summary

Daily Weather History Graph

Daily Weather History Graph

Search for Another Location

Airport or City:

Trip Planner

Search our weather history database for the weather conditions in past years. The results will help you decide how hot, cold, wet, or windy it might be!

Date:

Astronomy

Nov. 02, 2013 Rise Set
Actual Time 8:16 AM EDT 6:39 PM EDT
Civil Twilight 7:47 AM EDT 7:07 PM EDT
Nautical Twilight 7:15 AM EDT 7:40 PM EDT
Astronomical Twilight 6:43 AM EDT 8:12 PM EDT
Moon 7:12 AM EDT (11/2) 6:10 PM EDT (11/2)
Length of Visible Light 11h 20m
Length of Day
10h 23m
Waning Crescent, 1% of the Moon is Illuminated
Nov 2
Waning Crescent
Nov 3
New
Nov 10
First Quarter
Nov 17
Full
Nov 25
Last Quarter

Hourly Weather History & Observations

Time (EDT) Temp. Windchill Dew Point Humidity Pressure Visibility Wind Dir Wind Speed Gust Speed Precip Events Conditions
12:03 AM 46.4 °F 41.9 °F 46.4 °F 100% 29.75 in 10.0 mi West 9.2 mph - N/A   Mostly Cloudy
12:08 AM 46.4 °F 42.4 °F 46.4 °F 100% 29.75 in 10.0 mi West 8.1 mph - N/A   Mostly Cloudy
12:18 AM 46.4 °F 41.9 °F 46.4 °F 100% 29.74 in 10.0 mi West 9.2 mph - N/A   Overcast
12:58 AM 45.7 °F 40.6 °F 45.7 °F 100% 29.76 in 10.0 mi West 10.4 mph - N/A   Overcast
1:23 AM 44.6 °F 39.2 °F 44.6 °F 100% 29.74 in 10.0 mi West 10.4 mph - N/A   Light Drizzle
1:43 AM 44.6 °F 39.2 °F 44.6 °F 100% 29.74 in 10.0 mi West 10.4 mph - N/A   Overcast
1:58 AM 45.0 °F 39.7 °F 45.0 °F 100% 29.76 in 10.0 mi West 10.4 mph - 0.00 in   Overcast
2:38 AM 44.6 °F 39.7 °F 44.6 °F 100% 29.75 in 10.0 mi West 9.2 mph - N/A   Overcast
2:43 AM 44.6 °F 39.2 °F 44.6 °F 100% 29.75 in 10.0 mi West 10.4 mph - N/A   Overcast
2:48 AM 44.6 °F 38.4 °F 44.6 °F 100% 29.75 in 10.0 mi West 12.7 mph - N/A   Overcast
2:58 AM 45.1 °F 39.5 °F 45.1 °F 100% 29.77 in 10.0 mi West 11.5 mph - N/A   Overcast
3:18 AM 44.6 °F 39.7 °F 44.6 °F 100% 29.75 in 10.0 mi West 9.2 mph - N/A   Overcast
3:28 AM 44.6 °F 39.7 °F 44.6 °F 100% 29.75 in 10.0 mi West 9.2 mph - N/A   Overcast
3:43 AM 44.6 °F 38.8 °F 44.6 °F 100% 29.75 in 10.0 mi West 11.5 mph - N/A   Overcast
3:48 AM 44.6 °F 38.8 °F 44.6 °F 100% 29.75 in 10.0 mi West 11.5 mph - N/A   Overcast
3:58 AM 45.1 °F 40.3 °F 45.1 °F 100% 29.77 in 10.0 mi West 9.2 mph - N/A   Overcast
4:08 AM 44.6 °F 38.8 °F 44.6 °F 100% 29.75 in 10.0 mi West 11.5 mph - N/A   Overcast
4:38 AM 44.6 °F 40.2 °F 44.6 °F 100% 29.76 in 10.0 mi West 8.1 mph - N/A   Overcast
4:43 AM 44.6 °F 40.2 °F 44.6 °F 100% 29.76 in 10.0 mi West 8.1 mph - N/A   Overcast
4:45 AM 44.6 °F 40.2 °F 44.6 °F 100% 29.76 in 10.0 mi West 8.1 mph - N/A   Light Drizzle
4:50 AM 44.6 °F 39.7 °F 44.6 °F 100% 29.76 in 10.0 mi West 9.2 mph - N/A   Light Drizzle
4:55 AM 44.6 °F 39.7 °F 44.6 °F 100% 29.76 in 10.0 mi West 9.2 mph - N/A   Light Drizzle
4:56 AM 44.6 °F 40.2 °F 44.6 °F 100% 29.76 in 10.0 mi West 8.1 mph - N/A   Overcast
4:58 AM 45.1 °F 40.3 °F 45.1 °F 100% 29.78 in 10.0 mi West 9.2 mph - 0.00 in   Overcast
5:08 AM 44.6 °F 39.7 °F 44.6 °F 100% 29.76 in 10.0 mi West 9.2 mph - N/A   Overcast
5:43 AM 44.6 °F 39.7 °F 44.6 °F 100% 29.77 in 10.0 mi West 9.2 mph - N/A   Overcast
5:58 AM 45.0 °F 39.7 °F 45.0 °F 100% 29.79 in 10.0 mi West 10.4 mph - N/A   Overcast
6:43 AM 44.6 °F 39.2 °F 44.6 °F 100% 29.78 in 10.0 mi West 10.4 mph - N/A   Overcast
6:58 AM 44.2 °F 39.2 °F 44.2 °F 100% 29.81 in 10.0 mi West 9.2 mph - N/A   Overcast
7:27 AM 42.8 °F 37.0 °F 42.8 °F 100% 29.80 in 10.0 mi West 10.4 mph - N/A   Overcast
7:57 AM 42.8 °F 37.5 °F 42.8 °F 100% 29.80 in 10.0 mi WNW 9.2 mph - N/A   Overcast
7:58 AM 42.8 °F 37.5 °F 42.8 °F 100% 29.82 in 10.0 mi WNW 9.2 mph - N/A   Overcast
8:08 AM 42.8 °F 37.5 °F 42.8 °F 100% 29.80 in 9.0 mi WNW 9.2 mph - N/A   Overcast
8:48 AM 42.8 °F 36.6 °F 42.8 °F 100% 29.82 in 9.0 mi WNW 11.5 mph - N/A   Overcast
8:58 AM 42.1 °F 36.1 °F 42.1 °F 100% 29.84 in 9.0 mi WNW 10.4 mph - N/A   Overcast
9:28 AM 42.8 °F 37.0 °F 42.8 °F 100% 29.83 in 6.0 mi WNW 10.4 mph - N/A   Overcast
9:58 AM 42.6 °F 36.3 °F 42.6 °F 100% 29.86 in 7.0 mi WNW 11.5 mph - N/A   Overcast
10:13 AM 42.8 °F 37.5 °F 42.8 °F 100% 29.85 in 8.0 mi WNW 9.2 mph - N/A   Overcast
10:58 AM 44.2 °F 38.4 °F 44.1 °F 99% 29.88 in 10.0 mi WNW 11.5 mph - N/A   Overcast
11:46 AM 46.4 °F 41.1 °F 44.6 °F 93% 29.88 in 10.0 mi WNW 11.5 mph - N/A   Mostly Cloudy
11:58 AM 46.0 °F 40.2 °F 44.4 °F 94% 29.90 in 10.0 mi WNW 12.7 mph - N/A   Mostly Cloudy
12:13 PM 48.2 °F - 44.6 °F 87% 29.88 in 10.0 mi WNW 12.7 mph - N/A   Mostly Cloudy
12:18 PM 48.2 °F - 44.6 °F 87% 29.88 in 10.0 mi WNW 12.7 mph - N/A   Mostly Cloudy
12:48 PM 48.2 °F - 42.8 °F 82% 29.89 in 10.0 mi NW 11.5 mph - N/A   Mostly Cloudy
12:58 PM 49.1 °F - 43.0 °F 79% 29.91 in 10.0 mi NW 9.2 mph - N/A   Overcast
1:28 PM 48.2 °F - 41.0 °F 76% 29.90 in 10.0 mi WNW 10.4 mph - N/A   Mostly Cloudy
1:58 PM 49.6 °F - 43.2 °F 78% 29.92 in 10.0 mi NW 12.7 mph - N/A   Overcast
2:08 PM 48.2 °F - 42.8 °F 82% 29.90 in 10.0 mi NW 13.8 mph - N/A   Overcast
2:30 PM 48.2 °F - 42.8 °F 82% 29.90 in 10.0 mi WNW 13.8 mph - N/A Rain Light Rain
2:47 PM 48.2 °F - 44.6 °F 87% 29.90 in 10.0 mi NW 11.5 mph - N/A   Overcast
2:58 PM 48.7 °F - 44.1 °F 84% 29.93 in 10.0 mi WNW 12.7 mph - 0.00 in   Overcast
3:23 PM 50.0 °F - 44.6 °F 82% 29.91 in 10.0 mi WNW 17.3 mph - N/A   Overcast
3:33 PM 50.0 °F - 42.8 °F 76% 29.92 in 10.0 mi WNW 17.3 mph - N/A   Overcast
3:58 PM 49.1 °F - 41.9 °F 76% 29.95 in 10.0 mi NNW 12.7 mph 19.6 mph N/A   Overcast
4:08 PM 48.2 °F - 42.8 °F 82% 29.94 in 10.0 mi NNW 13.8 mph - N/A   Overcast
4:13 PM 46.4 °F 39.8 °F 42.8 °F 87% 29.94 in 10.0 mi NNW 16.1 mph - N/A   Overcast
4:18 PM 46.4 °F 40.7 °F 42.8 °F 87% 29.94 in 10.0 mi NNW 12.7 mph - N/A   Overcast
4:33 PM 46.4 °F 39.8 °F 42.8 °F 87% 29.95 in 10.0 mi NNW 16.1 mph 20.7 mph N/A   Overcast
4:58 PM 46.0 °F 39.0 °F 43.2 °F 90% 29.98 in 10.0 mi NNW 17.3 mph 20.7 mph N/A   Overcast
5:47 PM 44.6 °F 38.8 °F 42.8 °F 93% 29.99 in 10.0 mi NNW 11.5 mph - N/A   Light Drizzle
5:58 PM 44.6 °F 39.2 °F 43.9 °F 97% 30.01 in 10.0 mi NNW 10.4 mph - 0.00 in   Light Drizzle
5:59 PM 44.6 °F 38.4 °F 44.6 °F 100% 29.99 in 10.0 mi NNW 12.7 mph - N/A   Mostly Cloudy
6:02 PM 44.6 °F 38.4 °F 42.8 °F 93% 29.99 in 10.0 mi NNW 12.7 mph - N/A   Light Drizzle
6:36 PM 42.8 °F 37.5 °F 42.8 °F 100% 30.01 in 10.0 mi NW 9.2 mph - N/A   Mostly Cloudy
6:54 PM 42.8 °F 37.5 °F 42.8 °F 100% 30.01 in 10.0 mi NW 9.2 mph - N/A Rain Light Rain
6:58 PM 43.3 °F 38.1 °F 43.3 °F 100% 30.04 in 10.0 mi NNW 9.2 mph - 0.01 in Rain Light Rain
7:05 PM 42.8 °F 37.5 °F 42.8 °F 100% 30.01 in 10.0 mi NW 9.2 mph - N/A   Overcast
7:58 PM 43.5 °F 38.9 °F 43.2 °F 99% 30.06 in 10.0 mi NW 8.1 mph - 0.00 in   Overcast
9:58 PM 43.2 °F 39.0 °F 43.2 °F 100% 30.11 in 10.0 mi WNW 6.9 mph - N/A   Overcast
10:28 PM 42.8 °F 38.0 °F 42.8 °F 100% 30.09 in 10.0 mi WNW 8.1 mph - N/A   Overcast
10:54 PM 42.8 °F 37.0 °F 42.8 °F 100% 30.09 in 10.0 mi WNW 10.4 mph - N/A   Overcast
10:58 PM 43.3 °F 38.1 °F 43.3 °F 100% 30.12 in 10.0 mi WNW 9.2 mph - N/A   Overcast